Flag for Russia Weather past 2 weeks in Samara, Russia

30 °F

Icy mix. Mostly cloudy.

Feels Like: 24 °F
Forecast: 23 / 29 °F
Wind: 6 mph from South

Location: Samara

Current Time: Nov 27, 2015 at 5:43:19 AM

Latest Report: Nov 27, 2015 at 5:00 AM

Visibility: 2 mi

Pressure: 29.53 "Hg

Humidity: 100%

Dew point: 30 °F

Location of SamaraLocation

Historic Weather in Samara — Graph


Samara temperature yesterday

Maximum temperature yesterday: 34 °F (at 10:30 PM)
Minimum temperature yesterday: 27 °F (at 10:00 AM)
Average temperature yesterday: 30 °F

Past Weeks' High & Low Weather Summary

High48 °F (Nov 23, 12:30 AM)100% (Nov 13, 4:00 PM)30.27 "Hg (Nov 13, 4:00 PM)
Low7 °F (Nov 19, 8:00 AM)79% (Nov 17, 9:00 PM)29.39 "Hg (Nov 12, 4:00 AM)
Average29 °F92%29.94 "Hg
* Reported Nov 12 4:00 AM — Nov 27 4:30 AM, Samara, Weather by CustomWeather, © 2015

Note: Actual official high and low records may vary slightly from our data, if they occured in-between our weather recording intervals... More about our weather records


Samara weather history for previous 24 hours

Time TempWeatherWind HumidityBarometerVisibility
4:30 AM
Fri, Nov 27
32 °FLight rain. Mostly cloudy.6 mph93%29.53 "Hg3 mi
4:00 AM32 °FLight rain. Mostly cloudy.8 mph93%29.53 "Hg2 mi
3:30 AM32 °FMostly cloudy.6 mph93%29.53 "HgN/A
2:30 AM32 °FLight rain. Low clouds.10 mph93%29.53 "Hg2 mi
2:00 AM34 °FLight rain. Low clouds.8 mph93%29.53 "Hg3 mi
1:30 AM36 °FLow clouds.13 mph93%29.53 "HgN/A
1:00 AM36 °FLight rain. Low clouds.10 mph93%29.53 "Hg3 mi
12:30 AM36 °FLight rain. Low clouds.13 mph93%29.53 "Hg3 mi
12:00 AM36 °FLight rain. Low clouds.8 mph93%29.56 "Hg3 mi
11:30 PM
Thu, Nov 26
34 °FLight rain. Low clouds.10 mph93%29.56 "Hg3 mi
11:00 PM34 °FSnow flurries. Mostly cloudy.15 mph93%29.59 "Hg3 mi
10:30 PM34 °FSnow flurries. Mostly cloudy.15 mph93%29.59 "Hg3 mi
10:00 PM32 °FSnow flurries. Mostly cloudy.15 mph93%29.62 "Hg2 mi
9:30 PM32 °FSnow flurries. Mostly cloudy.15 mph93%29.62 "Hg2 mi
9:00 PM32 °FSnow flurries. Mostly cloudy.15 mph93%29.65 "Hg2 mi
8:30 PM32 °FSnow flurries. Ice fog.15 mph93%29.65 "Hg2 mi
8:00 PM32 °FSnow flurries. Mostly cloudy.13 mph93%29.68 "Hg4 mi
7:30 PM32 °FSnow flurries. Ice fog.15 mph93%29.68 "Hg2 mi
7:00 PM32 °FSnow flurries. Ice fog.17 mph93%29.68 "Hg2 mi
6:30 PM32 °FSnow flurries. Ice fog.17 mph87%29.68 "Hg1 mi
6:00 PM30 °FChilly.20 mph93%29.71 "Hg1 mi
5:30 PM30 °FSnow flurries. Mostly cloudy.15 mph93%29.77 "Hg1 mi
5:00 PM30 °FSnow flurries. Mostly cloudy.20 mph93%29.74 "Hg4 mi
4:30 PM30 °FHeavy snow. Ice fog.17 mph93%29.77 "Hg1 mi
4:00 PM30 °FSnow showers. Mostly cloudy.17 mph86%29.80 "Hg1 mi
3:30 PM30 °FSnow showers. Mostly cloudy.20 mph86%29.80 "Hg1 mi
3:00 PM30 °FSnow showers. Mostly cloudy.17 mph86%29.80 "Hg1 mi
2:30 PM28 °FHeavy snow. Ice fog.17 mph93%29.83 "Hg1 mi
2:00 PM28 °FChilly.13 mph93%29.86 "Hg1 mi
1:30 PM28 °FSnow flurries. Mostly cloudy.13 mph93%29.89 "Hg2 mi
1:00 PM28 °FSnow flurries. Mostly cloudy.17 mph93%29.86 "Hg3 mi
12:30 PM28 °FSnow flurries. Mostly cloudy.15 mph86%29.89 "Hg3 mi
12:00 PM28 °FSnow flurries. Mostly cloudy.17 mph86%29.89 "Hg2 mi
11:30 AM28 °FSnow flurries. Mostly cloudy.15 mph86%29.89 "Hg3 mi
11:00 AM28 °FSnow flurries. Mostly cloudy.13 mph86%29.92 "Hg1 mi
10:30 AM28 °FSnow flurries. Mostly cloudy.15 mph86%29.92 "Hg1 mi
10:00 AM27 °FSnow showers. Mostly cloudy.13 mph93%29.95 "Hg1 mi
9:30 AM28 °FSnow showers. Mostly cloudy.13 mph93%29.95 "Hg1 mi
9:00 AM28 °FSnow flurries. Mostly cloudy.13 mph93%29.95 "Hg4 mi
8:30 AM28 °FLight snow. Mostly cloudy.13 mph93%29.95 "Hg6 mi
7:30 AM28 °FLight snow. Mostly cloudy.8 mph93%29.98 "HgN/A
7:00 AM28 °FLight snow. Mostly cloudy.10 mph93%29.98 "Hg3 mi
6:30 AM30 °FLight snow. Mostly cloudy.13 mph86%29.98 "Hg3 mi
6:00 AM30 °FMostly cloudy.10 mph86%30.01 "HgN/A
5:30 AM30 °FMostly cloudy.10 mph86%30.01 "HgN/A
5:00 AM30 °FMostly cloudy.13 mph93%30.01 "HgN/A
Weather by CustomWeather, © 2015

See weather overviewHow to use our weather pages